SCP
0 0 0 0 0 0 0 0 0 0 0 0 0 0 0 0 0 0 0 0 0 0 0 0 0 0 0 0 0 0 0 0 0 0 0 0 0 0 0 0 0 0 0 0
0 0 0 0 0 0 0 0 0 0 0 0 0 0 0 0 0 0 0 0 0 0 0 0 0 0 0 0 0 0 0 0 0 0 0 0 0 0 0 0 0 0 0 0
0 0 0 0 0 0 0 0 0 0 0 0 0 0 0 0 0 0 0 0 0 0 0 0 0 0 0 0 0 0 0 0 0 0 0 0 0 0 0 0 0 0 0 0
0 0 0 0 0 0 0 0 0 0 0 0 0 0 0 0 0 0 0 0 0 0 0 0 0 0 0 0 0 0 0 0 0 0 0 0 0 0 0 0 0 0 0 0
0 0 0 0 0 0 0 0 0 0 0 0 0 0 0 0 0 0 0 0 0 0 0 0 0 0 0 0 0 0 0 0 0 0 0 0 0 0 0 0 0 0 0 0
0 0 0 0 0 0 0 0 0 0 0 0 0 0 0 0 0 0 0 0 0 0 0 0 0 0 0 0 0 0 0 0 0 0 0 0 0 0 0 0 0 0 0 0
0 0 0 0 0 0 0 0 0 0 0 0 0 0 0 0 0 0 0 0 0 0 0 0 0 0 0 0 0 0 0 0 0 0 0 0 0 0 0 0 0 0 0 0
0 0 0 0 0 0 0 0 0 0 0 0 0 0 0 0 0 0 0 0 0 0 0 0 0 0 0 0 0 0 0 0 0 0 0 0 0 0 0 0 0 0 0 0
0 0 0 0 0 0 0 0 0 0 0 0 0 0 0 0 0 0 0 0 0 0 0 0 0 0 0 0 0 0 0 0 0 0 0 0 0 0 0 0 0 0 0 0
0 0 0 0 0 0 0 0 0 0 0 0 0 0 0 0 0 0 0 0 0 0 0 0 0 0 0 0 0 0 0 0 0 0 0 0 0 0 0 0 0 0 0 0
0 0 0 0 0 0 0 0 0 0 0 0 0 0 0 0 0 0 0 0 0 0 0 0 0 0 0 0 0 0 0 0 0 0 0 0 0 0 0 0 0 0 0 0
0 0 0 0 0 0 0 0 0 0 0 0 0 0 0 0 0 0 0 0 0 0 0 0 0 0 0 0 0 0 0 0 0 0 0 0 0 0 0 0 0 0 0 0
0 0 0 0 0 0 0 0 0 0 0 0 0 0 0 0 0 0 0 0 0 0 0 0 0 0 0 0 0 0 0 0 0 0 0 0 0 0 0 0 0 0 0 0
0 0 0 0 0 0 0 0 0 0 0 0 0 0 0 0 0 0 0 0 0 0 0 0 0 0 0 0 0 0 0 0 0 0 0 0 0 0 0 0 0 0 0 0
0 0 0 0 0 0 0 0 0 0 0 0 0 0 0 0 0 0 0 0 0 0 0 0 0 0 0 0 0 0 0 0 0 0 0 0 0 0 0 0 0 0 0 0
0 0 0 0 0 0 0 0 0 0 0 0 0 0 0 0 0 0 0 0 0 0 0 0 0 0 0 0 0 0 0 0 0 0 0 0 0 0 0 0 0 0 0 0
0 0 0 0 0 0 0 0 0 0 0 0 0 0 0 0 0 0 0 0 0 0 0 0 0 0 0 0 0 0 0 0 0 0 0 0 0 0 0 0 0 0 0 0
0 0 0 0 0 0 0 0 0 0 0 0 0 0 0 0 0 0 0 0 0 0 0 0 0 0 0 0 0 0 0 0 0 0 0 0 0 0 0 0 0 0 0 0
0 0 0 0 0 0 0 0 0 0 0 0 0 0 0 0 0 0 0 0 0 0 0 0 0 0 0 0 0 0 0 0 0 0 0 0 0 0 0 0 0 0 0 0
0 0 0 0 0 0 0 0 0 0 0 0 0 0 0 0 0 0 0 0 0 0 0 0 0 0 0 0 0 0 0 0 0 0 0 0 0 0 0 0 0 0 0 0
0 0 0 0 0 0 0 0 0 0 0 0 0 0 0 0 0 0 0 0 0 0 0 0 0 0 0 0 0 0 0 0 0 0 0 0 0 0 0 0 0 0 0 0
0 0 0 0 0 0 0 0 0 0 0 0 0 0 0 0 0 0 0 0 0 0 0 0 0 0 0 0 0 0 0 0 0 0 0 0 0 0 0 0 0 0 0 0
0 0 0 0 0 0 0 0 0 0 0 0 0 0 0 0 0 0 0 0 0 0 0 0 0 0 0 0 0 0 0 0 0 0 0 0 0 0 0 0 0 0 0 0
0 0 0 0 0 0 0 0 0 0 0 0 0 0 0 0 0 0 0 0 0 0 0 0 0 0 0 0 0 0 0 0 0 0 0 0 0 0 0 0 0 0 0 0
0 0 0 0 0 0 0 0 0 0 0 0 0 0 0 0 0 0 0 0 0 0 0 0 0 0 0 0 0 0 0 0 0 0 0 0 0 0 0 0 0 0 0 0
0 0 0 0 0 0 0 0 0 0 0 0 0 0 0 0 0 0 0 0 0 0 0 0 0 0 0 0 0 0 0 0 0 0 0 0 0 0 0 0 0 0 0 0
Wind_Speed
7 5 7 7 7 6 7 7 10 7 3 2 6 9 6 7 6 6 7 8 8 7 7 7 7 7 7 7 7 6 6 5 4 3 2 2 1 0 0 0 1 2 2 2
7 10 11 8 3 3 6 8 9 8 3 2 6 9 6 6 7 7 8 9 9 8 7 7 7 7 7 7 7 7 6 6 5 3 2 2 1 0 0 1 1 1 2 2
13 5 2 2 3 5 8 9 9 7 2 5 4 8 7 6 5 5 8 10 10 9 8 7 7 7 7 7 6 6 6 6 5 4 3 2 1 1 1 1 1 2 2 2
10 7 4 4 6 6 8 5 5 5 4 5 6 4 5 9 7 6 7 9 10 9 8 8 8 7 6 6 6 6 6 6 4 4 3 2 1 1 1 1 1 2 2 1
6 5 4 6 7 6 2 2 3 4 5 7 6 6 5 11 10 11 9 9 10 9 9 8 8 8 7 5 5 5 6 5 4 4 3 3 3 2 2 2 3 3 2 1
9 2 5 4 0 1 2 1 4 4 3 6 9 9 5 10 14 14 12 10 10 10 9 9 8 8 6 5 4 4 5 5 4 3 3 4 3 3 3 4 3 3 3 2
8 9 6 3 3 2 3 3 3 4 4 8 3 4 5 7 11 15 15 12 11 10 10 9 8 8 7 6 4 4 5 4 3 3 3 3 2 2 2 2 3 3 3 3
9 9 13 9 8 6 8 6 5 3 3 1 2 5 1 5 4 10 13 13 12 11 9 9 9 8 7 6 5 4 4 3 3 3 2 2 2 1 1 2 3 3 3 3
6 4 4 6 5 4 6 7 5 4 6 4 5 4 3 2 3 4 11 13 12 11 10 9 8 8 8 6 5 4 4 3 3 2 2 3 3 2 2 3 3 3 4 4
6 2 5 3 1 3 3 3 3 4 4 5 6 6 6 7 6 5 8 11 11 11 10 9 8 7 7 6 5 4 3 3 2 1 1 1 2 2 3 4 5 5 5 5
6 3 6 5 8 9 7 4 4 4 4 2 4 2 3 8 10 9 8 9 11 11 10 9 8 7 7 6 5 4 3 3 2 1 2 2 3 3 4 4 5 5 5 6
7 3 5 5 3 1 7 8 7 4 5 4 2 3 3 5 6 7 7 8 9 10 9 9 8 7 7 6 4 4 3 2 1 1 2 3 3 4 4 5 5 5 6 6
8 5 4 3 1 3 4 7 7 5 3 3 4 3 1 3 5 6 7 7 7 9 9 8 8 7 6 5 4 3 3 2 1 1 2 3 4 4 5 5 6 6 6 7
3 4 6 4 2 7 6 8 8 6 4 5 8 5 5 6 6 6 7 7 7 8 8 8 7 6 6 5 4 3 2 1 0 1 3 4 4 5 5 6 6 6 7 8
2 3 6 5 2 2 4 7 10 10 9 7 7 8 4 4 6 7 8 8 8 9 8 7 6 5 5 4 3 2 1 1 1 2 3 5 5 5 5 6 6 7 8 9
3 3 3 4 2 2 4 6 8 10 11 11 11 11 4 2 3 5 6 8 9 9 8 7 6 5 4 3 2 1 1 1 1 3 4 5 5 6 6 6 7 8 8 8
5 4 2 3 2 1 7 10 12 10 9 8 10 7 1 2 3 3 4 6 8 8 8 7 6 5 4 3 2 1 1 2 2 4 5 5 6 6 6 7 7 8 8 9
5 5 3 2 3 8 6 1 3 6 8 8 6 3 4 4 4 4 4 6 7 8 7 6 5 4 3 2 1 1 1 2 4 5 6 6 6 6 7 7 8 9 8 8
1 4 3 3 4 8 5 4 4 4 5 4 4 3 6 8 5 2 3 6 7 7 7 6 5 4 2 1 1 1 3 4 5 6 6 6 6 7 7 8 9 8 8 8
2 2 2 4 4 7 2 2 2 3 5 1 3 6 8 7 3 3 5 7 8 8 6 5 4 2 1 1 1 2 4 5 6 6 6 6 6 7 8 9 9 8 8 9
4 4 5 6 6 8 2 4 5 5 5 2 4 6 8 6 4 6 8 7 7 7 6 4 3 1 1 1 1 3 5 6 6 6 6 6 7 8 9 8 8 8 8 9
9 8 7 6 7 9 6 7 7 4 3 3 4 5 6 6 7 7 7 7 6 5 4 3 1 1 1 2 3 5 6 6 6 6 7 7 8 8 8 8 8 8 8 9
9 8 6 8 8 2 7 5 3 4 4 4 4 5 8 8 7 7 6 6 5 4 3 2 1 2 3 3 4 6 6 6 6 7 8 8 8 7 7 8 8 8 7 7
5 3 1 2 3 5 5 4 3 3 3 4 5 6 7 7 7 7 5 5 4 3 2 1 1 3 4 4 5 6 6 6 7 8 8 7 8 8 7 6 6 6 6 7
5 6 4 4 2 4 4 5 5 4 5 6 6 6 6 7 7 6 5 4 3 2 1 1 2 4 5 6 6 6 6 6 7 8 8 7 7 8 8 7 6 8 8 10
4 7 7 5 4 6 5 6 7 7 6 7 7 6 6 6 6 5 4 3 2 1 1 2 4 5 6 6 7 7 7 7 7 7 7 6 6 6 7 8 9 13 16 23
Wind_Direction
197 225 242 247 239 264 311 313 306 307 124 187 251 260 233 176 185 186 156 133 119 112 107 100 93 87 83 83 90 95 97 92 90 82 84 91 93 42 311 252 271 272 265 261
229 230 247 261 314 325 292 282 280 284 139 185 266 267 236 178 192 183 158 141 134 130 120 110 103 95 92 91 92 94 93 89 85 85 89 91 98 98 169 236 259 278 274 261
234 232 140 214 243 255 257 254 265 283 317 229 255 274 218 169 171 158 149 141 140 142 135 124 108 97 89 86 89 93 90 87 86 88 86 66 47 349 11 326 293 270 263 262
243 241 194 224 246 241 262 273 268 287 297 274 197 264 195 165 168 174 165 149 146 141 136 130 121 110 101 95 92 94 93 91 86 82 74 68 58 31 351 348 291 286 264 253
231 175 184 228 242 244 248 23 312 275 264 276 253 249 235 157 182 188 183 164 149 144 140 134 127 123 114 104 99 99 96 90 81 76 69 50 41 13 357 352 343 334 316 281
251 199 187 221 148 319 110 242 253 252 250 258 233 216 238 183 194 183 181 170 154 147 142 136 131 126 120 117 110 107 102 97 89 78 69 69 48 10 356 349 347 333 320 311
239 231 197 156 151 171 188 218 237 212 214 241 222 201 255 179 176 176 176 168 158 151 148 147 149 144 140 137 131 120 112 107 90 72 58 58 52 5 344 343 334 323 315 313
217 227 194 182 194 187 196 219 241 265 247 179 187 226 212 74 107 158 162 160 157 157 157 158 159 151 145 145 143 127 112 104 85 65 42 34 31 12 344 333 316 304 295 292
230 199 117 151 195 225 197 214 255 307 301 283 244 180 103 84 77 139 156 159 164 163 159 157 155 149 147 148 144 128 116 103 84 57 31 21 4 351 334 318 305 295 289 290
269 187 138 103 115 252 280 273 185 209 241 259 257 215 186 175 185 184 171 169 165 160 156 154 152 149 144 141 133 122 113 106 93 55 33 359 325 326 320 308 299 294 293 295
229 238 143 164 201 197 191 230 230 235 257 260 290 337 36 160 173 181 187 172 164 160 158 155 152 147 140 137 141 134 119 103 84 37 7 340 324 322 312 301 296 297 298 300
196 240 205 185 172 193 195 205 208 220 235 213 245 275 32 91 138 162 176 169 160 156 154 150 147 145 145 148 147 137 130 117 101 32 338 317 311 307 302 298 299 304 304 302
174 208 213 157 199 205 220 222 229 250 286 258 241 238 146 132 138 152 159 157 151 148 147 145 146 149 149 148 145 139 132 125 110 359 314 307 305 305 301 300 303 306 303 298
189 229 232 215 133 160 193 205 210 216 225 240 235 248 205 191 179 169 159 153 147 146 147 147 149 148 144 144 139 131 125 126 141 294 291 292 292 294 295 298 300 298 296 294
185 247 262 274 92 136 206 203 199 212 228 241 255 269 273 194 181 174 162 156 150 148 148 147 147 141 138 138 137 132 138 176 240 278 283 281 283 288 291 292 291 290 288 288
196 247 274 271 200 211 258 248 229 222 230 245 264 272 291 97 122 143 153 155 155 154 151 145 141 139 142 143 139 132 196 250 266 276 277 280 283 284 284 285 285 285 284 284
182 210 216 249 209 220 249 228 227 228 223 221 242 253 98 112 125 145 149 149 153 146 141 142 143 140 136 131 127 178 254 278 281 277 277 279 279 281 282 284 288 286 285 284
186 199 217 224 186 235 235 160 203 227 241 228 229 193 154 129 101 83 113 137 138 133 134 136 131 123 119 118 139 235 278 283 279 278 278 279 282 284 285 286 285 285 282 283
327 198 207 190 226 264 245 194 175 196 256 232 219 155 110 100 81 55 79 108 119 119 119 118 117 119 125 151 210 265 282 281 281 282 283 286 291 291 290 287 284 283 285 286
308 288 211 184 207 238 234 130 110 115 265 230 147 135 133 127 155 202 129 103 100 101 103 106 107 111 138 230 268 287 281 283 283 283 284 290 291 288 287 284 284 285 285 285
168 198 207 208 224 251 175 151 128 170 233 131 129 142 150 166 172 134 118 109 109 109 112 116 125 151 219 266 291 279 279 277 277 283 288 289 286 284 283 283 283 285 285 286
174 180 195 193 221 241 160 156 187 193 146 141 141 145 139 122 112 115 117 117 118 120 125 128 138 230 273 286 282 277 275 275 282 287 287 285 283 284 288 286 286 285 288 291
187 190 191 195 208 183 161 167 141 128 144 148 146 136 132 135 136 132 130 131 133 135 137 139 187 273 281 279 273 275 277 284 289 286 283 283 285 284 283 284 288 290 288 287
198 155 200 241 186 161 157 126 140 144 139 131 129 131 135 141 142 142 141 141 143 145 153 171 269 280 282 283 281 277 283 288 288 286 286 287 289 288 285 282 282 285 286 287
175 158 192 238 185 138 187 188 168 145 124 119 117 124 136 137 141 142 143 147 149 148 160 229 266 274 279 284 284 284 287 290 288 285 286 287 286 287 289 284 277 284 274 282
168 166 181 211 190 177 191 176 160 153 153 146 135 127 124 131 135 133 137 137 137 159 232 268 272 275 282 287 287 287 286 286 286 288 287 286 285 286 286 289 290 285 286 295